| time (UTC) | temp F | wind direction | speed MPH | gust MPH | rain 1hr in | rain 24hr in | rain mn in | humidity % | barometer mb |
| 20260504170217 | 71 | 253 | 15.0 | 22.0 | 0.00 | 0.00 | 0.00 | 54 | 1004.7 |
| 20260504160135 | 67 | 213 | 13.0 | 18.0 | 0.00 | 0.00 | 0.00 | 60 | 1005.5 |
| 20260504151103 | 64 | 206 | 11.0 | 15.0 | 0.00 | 0.00 | 0.00 | 63 | 1005.7 |
| 20260504150600 | 64 | 230 | 9.0 | 14.0 | 0.00 | 0.00 | 0.00 | 64 | 1005.7 |
| 20260504141026 | 61 | 191 | 13.0 | 15.0 | 0.00 | 0.00 | 0.00 | 66 | 1006.1 |
| 20260504140522 | 61 | 226 | 11.0 | 14.0 | 0.00 | 0.00 | 0.00 | 66 | 1006.0 |
| 20260504130447 | 55 | 230 | 11.0 | 14.0 | 0.00 | 0.00 | 0.00 | 69 | 1006.5 |
| 20260504110334 | 47 | 187 | 7.0 | 9.0 | 0.00 | 0.00 | 0.00 | 78 | 1006.6 |
| 20260504100251 | 48 | 203 | 10.0 | 13.0 | 0.00 | 0.00 | 0.00 | 76 | 1006.7 |
| 20260504081645 | 49 | 199 | 9.0 | 11.0 | 0.00 | 0.00 | 0.00 | 74 | 1007.4 |
| 20260504081141 | 49 | 205 | 9.0 | 11.0 | 0.00 | 0.00 | 0.00 | 74 | 1007.6 |
| 20260504080637 | 49 | 199 | 10.0 | 11.0 | 0.00 | 0.00 | 0.00 | 74 | 1007.7 |
| 20260504080134 | 49 | 202 | 9.0 | 14.0 | 0.00 | 0.00 | 0.00 | 74 | 1007.7 |
| 20260504050450 | 52 | 185 | 9.0 | 11.0 | 0.00 | 0.00 | 0.00 | 66 | 1009.4 |
| 20260504045947 | 52 | 195 | 11.0 | 13.0 | 0.00 | 0.00 | 0.00 | 65 | 1009.1 |
| 20260504045443 | 53 | 187 | 11.0 | 15.0 | 0.00 | 0.00 | 0.00 | 64 | 1009.1 |
| 20260504044939 | 53 | 191 | 12.0 | 14.0 | 0.00 | 0.00 | 0.00 | 64 | 1009.4 |
| 20260504044437 | 53 | 178 | 12.0 | 14.0 | 0.00 | 0.00 | 0.00 | 64 | 1009.2 |
| 20260504043934 | 53 | 182 | 13.0 | 15.0 | 0.00 | 0.00 | 0.00 | 65 | 1009.4 |
| 20260504043431 | 53 | 181 | 13.0 | 15.0 | 0.00 | 0.00 | 0.00 | 64 | 1009.0 |
| 20260504042929 | 52 | 144 | 11.0 | 15.0 | 0.00 | 0.00 | 0.00 | 64 | 1009.3 |
| 20260504042425 | 52 | 165 | 10.0 | 13.0 | 0.00 | 0.00 | 0.00 | 65 | 1009.3 |
| 20260504041921 | 52 | 176 | 10.0 | 15.0 | 0.00 | 0.00 | 0.00 | 66 | 1009.7 |
| 20260504041418 | 52 | 173 | 12.0 | 14.0 | 0.00 | 0.00 | 0.00 | 66 | 1009.7 |
| 20260504040914 | 52 | 168 | 10.0 | 11.0 | 0.00 | 0.00 | 0.00 | 67 | 1009.5 |
| 20260504040412 | 52 | 142 | 9.0 | 13.0 | 0.00 | 0.00 | 0.00 | 67 | 1009.8 |
| 20260504035908 | 52 | 173 | 9.0 | 13.0 | 0.00 | 0.01 | 0.01 | 67 | 1009.8 |
| 20260504035405 | 52 | 174 | 7.0 | 13.0 | 0.00 | 0.01 | 0.01 | 66 | 1009.7 |
| 20260504034902 | 52 | 172 | 10.0 | 15.0 | 0.00 | 0.01 | 0.01 | 66 | 1009.9 |
| 20260504034359 | 52 | 186 | 10.0 | 13.0 | 0.00 | 0.01 | 0.01 | 67 | 1009.9 |
| 20260504033856 | 51 | 181 | 9.0 | 11.0 | 0.00 | 0.01 | 0.01 | 68 | 1010.2 |
| 20260504033354 | 51 | 163 | 9.0 | 11.0 | 0.00 | 0.01 | 0.01 | 68 | 1009.9 |
| 20260504032850 | 51 | 177 | 7.0 | 10.0 | 0.00 | 0.01 | 0.01 | 69 | 1010.2 |
| 20260504032347 | 51 | 163 | 7.0 | 10.0 | 0.00 | 0.01 | 0.01 | 69 | 1009.9 |
| 20260504031844 | 51 | 170 | 7.0 | 13.0 | 0.00 | 0.01 | 0.01 | 69 | 1010.0 |
| 20260504031341 | 50 | 150 | 7.0 | 9.0 | 0.00 | 0.01 | 0.01 | 71 | 1010.2 |
| 20260504030838 | 50 | 161 | 7.0 | 9.0 | 0.00 | 0.01 | 0.01 | 71 | 1010.5 |
| 20260504030335 | 50 | 172 | 11.0 | 11.0 | 0.00 | 0.01 | 0.01 | 72 | 1010.3 |
| 20260504025831 | 50 | 158 | 10.0 | 11.0 | 0.00 | 0.01 | 0.01 | 71 | 1010.3 |
| 20260504025328 | 50 | 169 | 10.0 | 15.0 | 0.00 | 0.01 | 0.01 | 71 | 1010.1 |
| 20260504024825 | 50 | 170 | 10.0 | 13.0 | 0.00 | 0.01 | 0.01 | 72 | 1010.4 |
| 20260504024321 | 50 | 164 | 11.0 | 13.0 | 0.00 | 0.01 | 0.01 | 72 | 1010.6 |
| 20260504023818 | 50 | 156 | 12.0 | 14.0 | 0.00 | 0.01 | 0.01 | 72 | 1010.6 |
| 20260504023315 | 50 | 183 | 10.0 | 11.0 | 0.00 | 0.01 | 0.01 | 74 | 1010.6 |
| 20260504022811 | 49 | 162 | 10.0 | 11.0 | 0.00 | 0.01 | 0.01 | 75 | 1010.6 |
| 20260504022308 | 49 | 183 | 7.0 | 9.0 | 0.00 | 0.01 | 0.01 | 76 | 1010.5 |
| 20260504021804 | 49 | 168 | 7.0 | 9.0 | 0.00 | 0.01 | 0.01 | 77 | 1010.9 |
| 20260504021302 | 49 | 158 | 10.0 | 11.0 | 0.00 | 0.01 | 0.01 | 78 | 1010.7 |
| 20260504020758 | 49 | 166 | 10.0 | 10.0 | 0.00 | 0.01 | 0.01 | 78 | 1010.7 |
| 20260504020255 | 49 | 151 | 11.0 | 11.0 | 0.00 | 0.01 | 0.01 | 79 | 1010.5 |
| 20260504015751 | 49 | 174 | 8.0 | 14.0 | 0.00 | 0.01 | 0.01 | 78 | 1010.6 |
| 20260504015248 | 49 | 139 | 9.0 | 11.0 | 0.00 | 0.01 | 0.01 | 78 | 1010.9 |
| 20260504014743 | 49 | 164 | 10.0 | 13.0 | 0.00 | 0.01 | 0.01 | 76 | 1010.7 |
| 20260504014240 | 49 | 153 | 11.0 | 13.0 | 0.00 | 0.01 | 0.01 | 75 | 1010.7 |
| 20260504013738 | 49 | 145 | 12.0 | 14.0 | 0.00 | 0.01 | 0.01 | 75 | 1010.8 |
| 20260504013235 | 49 | 156 | 9.0 | 13.0 | 0.00 | 0.01 | 0.01 | 76 | 1010.7 |
| 20260504012732 | 49 | 151 | 10.0 | 13.0 | 0.00 | 0.01 | 0.01 | 77 | 1010.7 |
| 20260504012230 | 49 | 173 | 8.0 | 11.0 | 0.00 | 0.01 | 0.01 | 79 | 1010.8 |
| 20260504011726 | 49 | 148 | 9.0 | 11.0 | 0.00 | 0.01 | 0.01 | 78 | 1010.9 |
| 20260504011223 | 48 | 153 | 9.0 | 11.0 | 0.00 | 0.01 | 0.01 | 79 | 1010.7 |
| 20260504010719 | 48 | 156 | 7.0 | 14.0 | 0.00 | 0.01 | 0.01 | 79 | 1010.9 |
| 20260504010215 | 48 | 164 | 11.0 | 13.0 | 0.07 | 0.01 | 0.01 | 80 | 1010.9 |
| 20260504005711 | 48 | 147 | 9.0 | 14.0 | 0.07 | 0.01 | 0.01 | 80 | 1010.9 |
| 20260504005209 | 48 | 161 | 12.0 | 14.0 | 0.00 | 0.00 | 0.00 | 79 | 1010.6 |
| 20260504004707 | 49 | 179 | 9.0 | 15.0 | 0.00 | 0.00 | 0.00 | 78 | 1010.8 |
| 20260504004203 | 49 | 153 | 10.0 | 17.0 | 0.00 | 0.00 | 0.00 | 76 | 1010.7 |
| 20260504003700 | 49 | 177 | 11.0 | 15.0 | 0.00 | 0.00 | 0.00 | 75 | 1010.8 |
| 20260504003157 | 49 | 189 | 9.0 | 13.0 | 0.00 | 0.00 | 0.00 | 77 | 1011.0 |
| 20260504002653 | 49 | 202 | 9.0 | 10.0 | 0.00 | 0.00 | 0.00 | 79 | 1011.0 |
| 20260504002151 | 49 | 194 | 9.0 | 11.0 | 0.00 | 0.00 | 0.00 | 80 | 1010.9 |
| 20260504001649 | 49 | 175 | 10.0 | 11.0 | 0.00 | 0.00 | 0.00 | 79 | 1010.7 |
| 20260504001144 | 49 | 182 | 10.0 | 11.0 | 0.00 | 0.00 | 0.00 | 80 | 1010.7 |
| 20260504000642 | 48 | 179 | 9.0 | 11.0 | 0.00 | 0.00 | 0.00 | 80 | 1010.8 |
| 20260504000139 | 49 | 158 | 7.0 | 9.0 | 0.00 | 0.00 | 0.00 | 80 | 1010.8 |
| 20260503235637 | 48 | 164 | 9.0 | 11.0 | 0.00 | 0.00 | 0.00 | 80 | 1010.7 |
| 20260503235133 | 48 | 147 | 8.0 | 9.0 | 0.00 | 0.00 | 0.00 | 80 | 1011.0 |
| 20260503234632 | 48 | 157 | 7.0 | 8.0 | 0.00 | 0.00 | 0.00 | 80 | 1011.0 |
| 20260503234130 | 48 | 148 | 7.0 | 10.0 | 0.00 | 0.00 | 0.00 | 81 | 1010.8 |
| 20260503233626 | 48 | 135 | 12.0 | 14.0 | 0.00 | 0.00 | 0.00 | 80 | 1010.7 |
| 20260503233122 | 48 | 150 | 9.0 | 11.0 | 0.00 | 0.00 | 0.00 | 80 | 1011.2 |
| 20260503232619 | 48 | 166 | 8.0 | 9.0 | 0.00 | 0.00 | 0.00 | 80 | 1011.2 |
| 20260503232116 | 48 | 151 | 8.0 | 13.0 | 0.00 | 0.00 | 0.00 | 79 | 1011.1 |
| 20260503231614 | 48 | 130 | 10.0 | 14.0 | 0.00 | 0.00 | 0.00 | 81 | 1010.9 |
| 20260503231110 | 48 | 138 | 10.0 | 11.0 | 0.00 | 0.00 | 0.00 | 81 | 1011.2 |
| 20260503230608 | 48 | 140 | 10.0 | 10.0 | 0.00 | 0.00 | 0.00 | 81 | 1011.1 |
| 20260503230104 | 48 | 138 | 8.0 | 11.0 | 0.00 | 0.00 | 0.00 | 81 | 1011.1 |
| 20260503225602 | 48 | 142 | 8.0 | 10.0 | 0.00 | 0.00 | 0.00 | 80 | 1011.4 |
| 20260503225056 | 48 | 140 | 9.0 | 10.0 | 0.00 | 0.00 | 0.00 | 79 | 1011.7 |
| 20260503224554 | 48 | 145 | 6.0 | 7.0 | 0.00 | 0.00 | 0.00 | 81 | 1011.7 |
| 20260503224052 | 48 | 134 | 7.0 | 9.0 | 0.00 | 0.00 | 0.00 | 80 | 1011.7 |
| 20260503223550 | 48 | 134 | 7.0 | 8.0 | 0.00 | 0.00 | 0.00 | 80 | 1011.8 |
| 20260503223045 | 48 | 117 | 6.0 | 8.0 | 0.00 | 0.00 | 0.00 | 81 | 1012.0 |
| 20260503222543 | 48 | 141 | 8.0 | 9.0 | 0.00 | 0.00 | 0.00 | 80 | 1012.1 |
| 20260503222041 | 48 | 142 | 8.0 | 8.0 | 0.00 | 0.00 | 0.00 | 79 | 1012.2 |
| 20260503221539 | 48 | 154 | 7.0 | 9.0 | 0.00 | 0.00 | 0.00 | 79 | 1012.2 |
| 20260503221036 | 48 | 158 | 6.0 | 8.0 | 0.00 | 0.00 | 0.00 | 81 | 1012.2 |
| 20260503220532 | 48 | 203 | 4.0 | 7.0 | 0.00 | 0.00 | 0.00 | 80 | 1012.8 |
| 20260503220029 | 48 | 217 | 9.0 | 10.0 | 0.00 | 0.00 | 0.00 | 80 | 1012.9 |
| 20260503215526 | 48 | 236 | 10.0 | 14.0 | 0.00 | 0.00 | 0.00 | 80 | 1013.1 |
| 20260503215023 | 48 | 255 | 8.0 | 16.0 | 0.00 | 0.00 | 0.00 | 81 | 1013.3 |
| 20260503214522 | 48 | 245 | 13.0 | 21.0 | 0.00 | 0.00 | 0.00 | 79 | 1013.3 |
| 20260503214018 | 49 | 248 | 14.0 | 24.0 | 0.00 | 0.00 | 0.00 | 76 | 1013.3 |
| 20260503213516 | 49 | 270 | 15.0 | 21.0 | 0.00 | 0.00 | 0.00 | 74 | 1013.3 |
| 20260503213013 | 50 | 256 | 22.0 | 29.0 | 0.00 | 0.00 | 0.00 | 69 | 1013.2 |
| 20260503212510 | 51 | 258 | 25.0 | 27.0 | 0.00 | 0.00 | 0.00 | 67 | 1013.2 |
| 20260503212008 | 51 | 236 | 19.0 | 23.0 | 0.00 | 0.00 | 0.00 | 65 | 1013.0 |
| 20260503211504 | 52 | 253 | 22.0 | 24.0 | 0.00 | 0.00 | 0.00 | 62 | 1013.0 |
| 20260503211000 | 52 | 259 | 14.0 | 30.0 | 0.00 | 0.00 | 0.00 | 62 | 1013.0 |
| 20260503210457 | 53 | 249 | 19.0 | 31.0 | 0.00 | 0.00 | 0.00 | 61 | 1013.1 |
| 20260503205957 | 55 | 253 | 21.0 | 36.0 | 0.00 | 0.00 | 0.00 | 55 | 1012.6 |
| 20260503205454 | 58 | 251 | 16.0 | 27.0 | 0.00 | 0.00 | 0.00 | 42 | 1012.4 |
| 20260503204950 | 58 | 255 | 13.0 | 22.0 | 0.00 | 0.00 | 0.00 | 42 | 1012.4 |
| 20260503204448 | 58 | 259 | 14.0 | 16.0 | 0.00 | 0.00 | 0.00 | 40 | 1012.5 |
| 20260503203944 | 59 | 255 | 14.0 | 19.0 | 0.00 | 0.00 | 0.00 | 40 | 1012.5 |
| 20260503203442 | 59 | 242 | 12.0 | 22.0 | 0.00 | 0.00 | 0.00 | 39 | 1012.4 |
| 20260503202938 | 59 | 192 | 23.0 | 26.0 | 0.00 | 0.00 | 0.00 | 38 | 1012.3 |
| 20260503202437 | 59 | 227 | 15.0 | 18.0 | 0.00 | 0.00 | 0.00 | 39 | 1012.7 |
| 20260503201935 | 59 | 248 | 17.0 | 21.0 | 0.00 | 0.00 | 0.00 | 39 | 1012.7 |
| 20260503201432 | 59 | 209 | 10.0 | 13.0 | 0.00 | 0.00 | 0.00 | 39 | 1012.6 |
| 20260503200930 | 59 | 226 | 10.0 | 19.0 | 0.00 | 0.00 | 0.00 | 38 | 1012.9 |
| 20260503200426 | 59 | 253 | 17.0 | 21.0 | 0.00 | 0.00 | 0.00 | 39 | 1012.8 |
| 20260503195922 | 59 | 259 | 10.0 | 19.0 | 0.00 | 0.00 | 0.00 | 39 | 1012.8 |
| 20260503195420 | 59 | 250 | 16.0 | 22.0 | 0.00 | 0.00 | 0.00 | 38 | 1013.2 |
| 20260503194916 | 60 | 255 | 15.0 | 19.0 | 0.00 | 0.00 | 0.00 | 38 | 1013.3 |
| 20260503194413 | 59 | 253 | 17.0 | 22.0 | 0.00 | 0.00 | 0.00 | 37 | 1013.0 |
| 20260503193909 | 60 | 272 | 15.0 | 23.0 | 0.00 | 0.00 | 0.00 | 39 | 1013.3 |
| 20260503193404 | 60 | 243 | 17.0 | 21.0 | 0.00 | 0.00 | 0.00 | 38 | 1013.2 |
| 20260503192900 | 60 | 232 | 16.0 | 26.0 | 0.00 | 0.00 | 0.00 | 37 | 1013.1 |
| 20260503192356 | 59 | 248 | 17.0 | 23.0 | 0.00 | 0.00 | 0.00 | 37 | 1013.1 |
| 20260503191853 | 60 | 238 | 17.0 | 19.0 | 0.00 | 0.00 | 0.00 | 37 | 1013.2 |
| 20260503191350 | 59 | 247 | 19.0 | 22.0 | 0.00 | 0.00 | 0.00 | 37 | 1013.1 |
| 20260503190846 | 60 | 223 | 18.0 | 25.0 | 0.00 | 0.00 | 0.00 | 36 | 1013.2 |
| 20260503190344 | 60 | 237 | 15.0 | 24.0 | 0.00 | 0.00 | 0.00 | 39 | 1013.3 |
| 20260503185841 | 59 | 246 | 16.0 | 21.0 | 0.00 | 0.00 | 0.00 | 37 | 1013.5 |
| 20260503185337 | 60 | 238 | 19.0 | 25.0 | 0.00 | 0.00 | 0.00 | 36 | 1013.6 |
| 20260503184836 | 59 | 195 | 15.0 | 17.0 | 0.00 | 0.00 | 0.00 | 37 | 1013.8 |
| 20260503184333 | 60 | 243 | 18.0 | 19.0 | 0.00 | 0.00 | 0.00 | 38 | 1013.9 |
| 20260503183829 | 59 | 243 | 16.0 | 21.0 | 0.00 | 0.00 | 0.00 | 37 | 1013.9 |
| 20260503183326 | 59 | 239 | 12.0 | 22.0 | 0.00 | 0.00 | 0.00 | 37 | 1013.8 |
| 20260503182823 | 60 | 267 | 11.0 | 19.0 | 0.00 | 0.00 | 0.00 | 39 | 1014.0 |
| 20260503182323 | 59 | 250 | 16.0 | 18.0 | 0.00 | 0.00 | 0.00 | 38 | 1014.1 |
| 20260503181819 | 59 | 240 | 16.0 | 17.0 | 0.00 | 0.00 | 0.00 | 38 | 1014.0 |
| 20260503181316 | 59 | 252 | 17.0 | 21.0 | 0.00 | 0.00 | 0.00 | 37 | 1014.2 |
| 20260503180813 | 58 | 219 | 18.0 | 21.0 | 0.00 | 0.00 | 0.00 | 38 | 1014.3 |
| 20260503180311 | 59 | 227 | 17.0 | 23.0 | 0.00 | 0.00 | 0.00 | 37 | 1014.3 |
| 20260503175807 | 58 | 269 | 12.0 | 13.0 | 0.00 | 0.00 | 0.00 | 39 | 1014.4 |
| 20260503175305 | 59 | 246 | 17.0 | 23.0 | 0.00 | 0.00 | 0.00 | 37 | 1014.4 |
| 20260503174800 | 59 | 250 | 11.0 | 13.0 | 0.00 | 0.00 | 0.00 | 39 | 1014.4 |
| 20260503174259 | 59 | 251 | 21.0 | 25.0 | 0.00 | 0.00 | 0.00 | 39 | 1014.6 |
| 20260503173753 | 58 | 223 | 10.0 | 17.0 | 0.00 | 0.00 | 0.00 | 39 | 1014.5 |
| 20260503173249 | 58 | 235 | 16.0 | 27.0 | 0.00 | 0.00 | 0.00 | 37 | 1014.6 |
| 20260503172747 | 59 | 226 | 14.0 | 27.0 | 0.00 | 0.00 | 0.00 | 40 | 1014.5 |
| 20260503172244 | 59 | 231 | 8.0 | 19.0 | 0.00 | 0.00 | 0.00 | 40 | 1014.6 |
| 20260503171740 | 58 | 237 | 16.0 | 21.0 | 0.00 | 0.00 | 0.00 | 39 | 1014.7 |
| 20260503171237 | 58 | 263 | 12.0 | 15.0 | 0.00 | 0.00 | 0.00 | 40 | 1015.0 |
| 20260503170734 | 58 | 253 | 21.0 | 24.0 | 0.00 | 0.00 | 0.00 | 40 | 1014.9 |